User: anonymous   Login
Location: Moonridge Observatory
(39.2268°N, 77.7914°W)
Time: 02:21:25
(UTC-04:00)
Language:

CZ-2C R/B - Orbit

View from above orbital plane
View from above orbital plane
View from above satellite
View from above satellite

Ground track
Ground track

The orbit data is extracted from the following two-line orbital elements,

1 28480U 04046B   15115.05550325  .00000232  00000-0  10343-3 0  9995
2 28480 098.1316 252.7774 0142622 020.2258 119.2532 14.25489661542518
Epoch (UTC): 25 April 2015 01:19:55
Eccentricity: 0.0142622
inclination: 98.1316°
perigee height: 704 km
apogee height: 909 km
right ascension of ascending node: 252.7774°
argument of perigee: 20.2258°
revolutions per day: 14.25489661
mean anomaly at epoch: 119.2532°
orbit number at epoch: 54251

The dashed part of the orbit path shows where the satellite is in the earth's shadow,  

DLR